Location: Monteux
(44.0348°N, 4.9972°E)
Time: 17:06:17
(UTC+00:00)

COSMO-SKYMED 1 - Pass Details

Date: 30 November 2020
Orbit: 621 x 623 km, 97.9° (Epoch: 18 January)

Event Time Altitude Azimuth Distance (km) Brightness Sun altitude
Exits shadow 17:04:20 - 35° (NE) 2,063 4.8 -10.8°
Reaches altitude 10° 17:04:30 10° 36° (NE) 2,003 4.7 -10.8°
Maximum altitude 17:08:15 28° 95° (E) 1,185 3.5 -11.4°
Drops below altitude 10° 17:11:58 10° 155° (SSE) 1,988 5.1 -12.0°
Sets 17:14:24 0° 167° (SSE) 2,888 6.1 -12.5°
